| time (UTC) | temp F | wind direction | speed knots | gust knots | rain 1hr in | rain 24hr in | rain mn in | humidity % | barometer mb |
| 20260505200001 | 81 | 360 | 0.0 | 0.9 | 0.00 | 0.00 | 0.00 | 36 | 1014.7 |
| 20260505194459 | 81 | 360 | 0.0 | 0.9 | 0.00 | 0.00 | 0.00 | 36 | 1014.9 |
| 20260505193002 | 80 | 360 | 0.0 | 0.9 | 0.00 | 0.00 | 0.00 | 34 | 1015.2 |
| 20260505191459 | 79 | 360 | 0.0 | 0.9 | 0.00 | 0.00 | 0.00 | 39 | 1015.6 |
| 20260505190000 | 80 | 360 | 0.0 | 0.9 | 0.00 | 0.00 | 0.00 | 37 | 1015.8 |
| 20260505184459 | 81 | 360 | 0.0 | 0.9 | 0.00 | 0.00 | 0.00 | 36 | 1016.1 |
| 20260505183002 | 80 | 360 | 0.0 | 0.9 | 0.00 | 0.00 | 0.00 | 39 | 1016.3 |
| 20260505181459 | 78 | 360 | 0.0 | 1.7 | 0.00 | 0.00 | 0.00 | 39 | 1016.3 |
| 20260505180001 | 80 | 360 | 0.0 | 0.9 | 0.00 | 0.00 | 0.00 | 36 | 1016.3 |
| 20260505174459 | 79 | 360 | 0.0 | 0.9 | 0.00 | 0.00 | 0.00 | 39 | 1016.3 |
| 20260505173000 | 78 | 360 | 0.0 | 0.9 | 0.00 | 0.00 | 0.00 | 40 | 1016.2 |
| 20260505171459 | 78 | 360 | 0.0 | 0.9 | 0.00 | 0.00 | 0.00 | 40 | 1016.3 |
| 20260505170006 | 77 | 360 | 0.0 | 0.9 | 0.00 | 0.00 | 0.00 | 44 | 1016.4 |
| 20260505163000 | 77 | 360 | 0.0 | 0.9 | 0.00 | 0.00 | 0.00 | 45 | 1016.9 |
| 20260505161459 | 76 | 360 | 0.0 | 0.9 | 0.00 | 0.00 | 0.00 | 47 | 1017.2 |
| 20260505153001 | 73 | 360 | 0.0 | 0.9 | 0.00 | 0.00 | 0.00 | 56 | 1017.5 |
| 20260505151459 | 73 | 360 | 0.0 | 1.7 | 0.00 | 0.00 | 0.00 | 59 | 1017.6 |
| 20260505124459 | 61 | 360 | 0.0 | 1.7 | 0.00 | 0.00 | 0.00 | 75 | 1017.7 |
| 20260505123000 | 59 | 360 | 0.0 | 0.9 | 0.00 | 0.00 | 0.00 | 77 | 1017.8 |
| 20260505121459 | 58 | 360 | 0.0 | 0.0 | 0.00 | 0.00 | 0.00 | 79 | 1017.9 |
| 20260505120000 | 56 | 360 | 0.0 | 0.0 | 0.00 | 0.00 | 0.00 | 81 | 1017.6 |
| 20260505113001 | 52 | 360 | 0.0 | 1.7 | 0.00 | 0.00 | 0.00 | 84 | 1017.3 |
| 20260505111459 | 51 | 360 | 0.0 | 0.0 | 0.00 | 0.00 | 0.00 | 83 | 1017.3 |
| 20260505101459 | 52 | 360 | 0.0 | 0.0 | 0.00 | 0.00 | 0.00 | 80 | 1016.8 |
| 20260505100001 | 53 | 360 | 0.0 | 0.0 | 0.00 | 0.00 | 0.00 | 78 | 1016.6 |
| 20260505093001 | 55 | 360 | 0.0 | 0.9 | 0.00 | 0.00 | 0.00 | 76 | 1016.1 |
| 20260505084457 | 56 | 360 | 0.9 | 3.5 | 0.00 | 0.00 | 0.00 | 75 | 1016.0 |
| 20260505082959 | 56 | 360 | 0.9 | 2.6 | 0.00 | 0.00 | 0.00 | 74 | 1015.9 |
| 20260505081458 | 56 | 360 | 0.0 | 2.6 | 0.00 | 0.00 | 0.00 | 74 | 1016.0 |
| 20260505080000 | 56 | 360 | 0.0 | 0.9 | 0.00 | 0.00 | 0.00 | 73 | 1016.0 |
| 20260505072959 | 57 | 360 | 1.7 | 2.6 | 0.00 | 0.00 | 0.00 | 70 | 1015.9 |
| 20260505071457 | 58 | 360 | 1.7 | 3.5 | 0.00 | 0.00 | 0.00 | 70 | 1015.8 |
| 20260505065959 | 58 | 360 | 0.9 | 2.6 | 0.00 | 0.00 | 0.00 | 69 | 1015.6 |
| 20260505064458 | 58 | 360 | 0.9 | 3.5 | 0.00 | 0.00 | 0.00 | 68 | 1015.6 |
| 20260505063000 | 58 | 360 | 0.9 | 3.5 | 0.00 | 0.00 | 0.00 | 67 | 1015.8 |
| 20260505061458 | 59 | 360 | 1.7 | 4.3 | 0.00 | 0.00 | 0.00 | 67 | 1015.7 |
| 20260505055958 | 59 | 360 | 1.7 | 3.5 | 0.00 | 0.00 | 0.00 | 66 | 1015.9 |
| 20260505051457 | 61 | 360 | 1.7 | 4.3 | 0.00 | 0.00 | 0.00 | 63 | 1015.9 |
| 20260505040006 | 63 | 360 | 2.6 | 7.0 | 0.00 | 0.00 | 0.00 | 57 | 1016.2 |
| 20260505034500 | 63 | 360 | 3.5 | 7.8 | 0.00 | 0.00 | 0.00 | 56 | 1016.2 |
| 20260505033000 | 63 | 360 | 1.7 | 4.3 | 0.00 | 0.00 | 0.00 | 53 | 1016.1 |
| 20260505031459 | 63 | 360 | 0.9 | 3.5 | 0.00 | 0.00 | 0.00 | 52 | 1016.1 |
| 20260505030001 | 63 | 360 | 0.0 | 1.7 | 0.00 | 0.00 | 0.00 | 51 | 1016.1 |
| 20260505021459 | 65 | 360 | 0.9 | 3.5 | 0.00 | 0.00 | 0.00 | 47 | 1016.0 |
| 20260505014500 | 66 | 360 | 0.9 | 2.6 | 0.00 | 0.00 | 0.00 | 45 | 1015.6 |
| 20260505011459 | 65 | 360 | 0.0 | 1.7 | 0.00 | 0.00 | 0.00 | 45 | 1015.4 |
| 20260505010008 | 66 | 360 | 0.0 | 0.0 | 0.00 | 0.00 | 0.00 | 46 | 1015.2 |
| 20260505004459 | 68 | 360 | 0.0 | 0.0 | 0.00 | 0.00 | 0.00 | 39 | 1015.1 |
| 20260505000002 | 72 | 360 | 0.0 | 0.9 | 0.00 | 0.00 | 0.00 | 33 | 1014.8 |
| 20260504234459 | 73 | 360 | 0.0 | 0.9 | 0.00 | 0.00 | 0.00 | 32 | 1014.6 |
| 20260504233002 | 75 | 360 | 0.0 | 1.7 | 0.00 | 0.00 | 0.00 | 30 | 1014.4 |
| 20260504230005 | 76 | 360 | 0.0 | 0.9 | 0.00 | 0.00 | 0.00 | 29 | 1014.3 |
| 20260504224459 | 77 | 360 | 0.0 | 0.9 | 0.00 | 0.00 | 0.00 | 30 | 1014.4 |
| 20260504223000 | 78 | 360 | 0.0 | 0.9 | 0.00 | 0.00 | 0.00 | 31 | 1014.3 |
| 20260504221459 | 79 | 360 | 0.0 | 0.9 | 0.00 | 0.00 | 0.00 | 27 | 1014.3 |
| 20260504220001 | 79 | 360 | 0.0 | 0.9 | 0.00 | 0.00 | 0.00 | 24 | 1014.2 |
| 20260504214459 | 80 | 360 | 0.0 | 0.9 | 0.00 | 0.00 | 0.00 | 27 | 1014.4 |
| 20260504213002 | 79 | 360 | 0.0 | 0.9 | 0.00 | 0.00 | 0.00 | 28 | 1014.4 |
| 20260504211500 | 81 | 360 | 0.0 | 0.9 | 0.00 | 0.00 | 0.00 | 26 | 1014.3 |
| 20260504210003 | 80 | 360 | 0.0 | 0.9 | 0.00 | 0.00 | 0.00 | 25 | 1014.4 |
| 20260504204459 | 80 | 360 | 0.0 | 0.9 | 0.00 | 0.00 | 0.00 | 24 | 1014.6 |
| 20260504203001 | 80 | 360 | 0.0 | 0.9 | 0.00 | 0.00 | 0.00 | 24 | 1014.8 |